Weather History for Galax, VA

Change the Weather History Date:

Saturday, December 8, 2012

  Actual Average (KBLF) Record (KBLF)
Temperature  
Mean Temperature 55 °F 39 °F  
Max Temperature 66 °F 47 °F 73 °F (1978)
Min Temperature 44 °F 31 °F 9 °F (2006)
Degree Days  
Heating Degree Days 10 26  
Month to date heating degree days 199  
Since 1 July heating degree days 1102  
Cooling Degree Days 0 0  
Month to date cooling degree days 0  
Year to date cooling degree days 853  
Growing Degree Days 5 (Base 50)    
Moisture  
Dew Point 49 °F    
Average Humidity 84    
Maximum Humidity 100    
Minimum Humidity 49    
Precipitation  
Precipitation 0.00 in 0.10 in 1.12 in (1998)
Month to date precipitation 0.78  
Year to date precipitation 37.50  
Snow  
Snow 0.00 in - - ()
Month to date snowfall  
Since 1 July snowfall  
Snow Depth -    
Sea Level Pressure  
Sea Level Pressure 30.03 in    
Wind  
Wind Speed 5 mph (SSW)    
Max Wind Speed 15 mph    
Max Gust Speed 18 mph    
Visibility 9 miles    
Events Fog    
T = Trace of Precipitation, MM = Missing Value Source: NWS Daily Summary

Daily Weather History Graph

Daily Weather History Graph

Search for Another Location

Airport:

Trip Planner

Search our weather history database for the weather conditions in past years. The results will help you decide how hot, cold, wet, or windy it might be!

Date:

Astronomy

Dec. 08, 2012 Rise Set
Actual Time 7:23 AM EST 5:07 PM EST
Civil Twilight 6:55 AM EST 5:35 PM EST
Nautical Twilight 6:22 AM EST 6:08 PM EST
Astronomical Twilight 5:51 AM EST 6:39 PM EST
Moon 1:53 AM EST (12/8) 1:30 PM EST (12/8)
Length of Visible Light 10h 40m
Length of Day
9h 43m
Waning Crescent, 28% of the Moon is Illuminated
Dec 8
Waning Crescent
Dec 13
New
Dec 20
First Quarter
Dec 28
Full
Jan 4
Last Quarter

Hourly Weather History & Observations

Time (EST) Temp. Windchill Dew Point Humidity Pressure Visibility Wind Dir Wind Speed Gust Speed Precip Events Conditions
12:15 AM 48.2 °F - 46.4 °F 93% 30.01 in 4.0 mi SSW 4.6 mph - N/A   Clear
12:35 AM 48.2 °F - 46.4 °F 93% 30.01 in 5.0 mi SSW 4.6 mph - N/A   Clear
12:55 AM 48.2 °F - 46.4 °F 93% 30.01 in 5.0 mi SSW 4.6 mph - N/A   Clear
1:15 AM 46.4 °F 44.3 °F 46.4 °F 100% 30.01 in 0.2 mi SW 4.6 mph - N/A Fog Fog
1:35 AM 48.2 °F - 46.4 °F 93% 30.00 in 4.0 mi SSW 6.9 mph - N/A   Scattered Clouds
1:55 AM 48.2 °F - 46.4 °F 93% 30.00 in 4.0 mi SSW 8.1 mph - N/A   Clear
2:15 AM 48.2 °F - 46.4 °F 93% 30.00 in 7.0 mi SSW 6.9 mph - N/A   Clear
2:35 AM 48.2 °F - 46.4 °F 93% 29.99 in 10.0 mi SSW 6.9 mph - N/A   Clear
2:55 AM 44.6 °F 42.2 °F 44.6 °F 100% 29.99 in 0.2 mi WSW 4.6 mph - N/A Fog Fog
3:15 AM 46.4 °F 45.2 °F 46.4 °F 100% 29.99 in 4.0 mi SW 3.5 mph - N/A   Scattered Clouds
3:35 AM 46.4 °F 45.2 °F 46.4 °F 100% 29.99 in 5.0 mi SW 3.5 mph - N/A   Clear
3:55 AM 46.4 °F 45.2 °F 44.6 °F 93% 29.99 in 4.0 mi SW 3.5 mph - N/A   Clear
4:15 AM 46.4 °F 45.2 °F 46.4 °F 100% 29.99 in 10.0 mi SSW 3.5 mph - N/A   Clear
4:35 AM 46.4 °F 44.3 °F 44.6 °F 93% 29.99 in 10.0 mi WSW 4.6 mph - N/A   Clear
4:55 AM 46.4 °F - 44.6 °F 93% 30.00 in 7.0 mi Calm Calm - N/A   Clear
5:15 AM 46.4 °F 45.2 °F 46.4 °F 100% 30.00 in 10.0 mi SSW 3.5 mph - N/A   Scattered Clouds
5:35 AM 46.4 °F 44.3 °F 46.4 °F 100% 30.01 in 10.0 mi SSW 4.6 mph - N/A   Scattered Clouds
6:15 AM 48.2 °F - 46.4 °F 93% 30.02 in 10.0 mi Calm Calm - N/A   Overcast
6:35 AM 48.2 °F - 46.4 °F 93% 30.02 in 10.0 mi Calm Calm - N/A   Overcast
6:55 AM 48.2 °F - 46.4 °F 93% 30.02 in 10.0 mi SW 3.5 mph - N/A   Overcast
7:15 AM 51.8 °F - 50.0 °F 94% 30.02 in 10.0 mi WSW 4.6 mph - N/A   Overcast
7:35 AM 46.4 °F 43.5 °F 44.6 °F 93% 30.02 in 1.2 mi South 5.8 mph - N/A   Overcast
7:55 AM 48.2 °F - 46.4 °F 93% 30.03 in 10.0 mi South 3.5 mph - N/A   Overcast
8:15 AM 50.0 °F - 48.2 °F 94% 30.03 in 10.0 mi SSW 4.6 mph - N/A   Mostly Cloudy
8:35 AM 51.8 °F - 48.2 °F 88% 30.04 in 10.0 mi SW 3.5 mph - N/A   Mostly Cloudy
8:55 AM 51.8 °F - 48.2 °F 88% 30.04 in 10.0 mi SW 3.5 mph - N/A   Overcast
9:15 AM 51.8 °F - 48.2 °F 88% 30.04 in 10.0 mi Calm Calm - N/A   Overcast
9:35 AM 51.8 °F - 48.2 °F 88% 30.05 in 10.0 mi West 3.5 mph - N/A   Overcast
9:55 AM 53.6 °F - 50.0 °F 88% 30.05 in 10.0 mi SSW 6.9 mph - N/A   Mostly Cloudy
10:15 AM 53.6 °F - 51.8 °F 94% 30.05 in 10.0 mi SSW 3.5 mph - N/A   Clear
10:35 AM 55.4 °F - 51.8 °F 88% 30.05 in 10.0 mi SW 3.5 mph - N/A   Scattered Clouds
10:55 AM 57.2 °F - 53.6 °F 88% 30.04 in 10.0 mi SW 3.5 mph - N/A   Mostly Cloudy
11:15 AM 57.2 °F - 53.6 °F 88% 30.05 in 10.0 mi SW 5.8 mph - N/A   Overcast
11:35 AM 55.4 °F - 51.8 °F 88% 30.04 in 10.0 mi Calm Calm - N/A   Mostly Cloudy
11:55 AM 59.0 °F - 53.6 °F 82% 30.03 in 10.0 mi WSW 4.6 mph - N/A   Scattered Clouds
12:15 PM 60.8 °F - 53.6 °F 77% 30.02 in 10.0 mi WSW 5.8 mph - N/A   Clear
12:35 PM 62.6 °F - 53.6 °F 72% 30.02 in 10.0 mi West 5.8 mph - N/A   Clear
12:55 PM 62.6 °F - 51.8 °F 68% 30.00 in 10.0 mi SW 6.9 mph - N/A   Scattered Clouds
1:15 PM 62.6 °F - 51.8 °F 68% 30.00 in 10.0 mi SW 8.1 mph - N/A   Clear
1:35 PM 62.6 °F - 51.8 °F 68% 30.00 in 10.0 mi Calm Calm - N/A   Mostly Cloudy
1:55 PM 64.4 °F - 51.8 °F 64% 29.99 in 10.0 mi SW 3.5 mph - N/A   Scattered Clouds
2:15 PM 66.2 °F - 51.8 °F 60% 29.99 in 10.0 mi West 10.4 mph - N/A   Clear
2:35 PM 64.4 °F - 50.0 °F 59% 29.99 in 10.0 mi SW 12.7 mph - N/A   Scattered Clouds
2:55 PM 66.2 °F - 50.0 °F 56% 29.99 in 10.0 mi SW 15.0 mph 18.4 mph N/A   Scattered Clouds
3:15 PM 66.2 °F - 48.2 °F 52% 29.99 in 10.0 mi SW 11.5 mph - N/A   Clear
3:35 PM 66.2 °F - 48.2 °F 52% 30.00 in 10.0 mi SW 13.8 mph 17.3 mph N/A   Clear
3:55 PM 66.2 °F - 46.4 °F 49% 30.00 in 10.0 mi SW 6.9 mph - N/A   Clear
4:15 PM 66.2 °F - 46.4 °F 49% 30.01 in 10.0 mi WSW 9.2 mph - N/A   Clear
4:35 PM 64.4 °F - 50.0 °F 59% 30.01 in 10.0 mi WNW 3.5 mph - N/A   Clear
4:55 PM 62.6 °F - 50.0 °F 63% 30.02 in 10.0 mi South 4.6 mph - N/A   Clear
5:15 PM 60.8 °F - 51.8 °F 72% 30.02 in 10.0 mi South 6.9 mph - N/A   Clear
5:35 PM 60.8 °F - 51.8 °F 72% 30.02 in 10.0 mi South 3.5 mph - N/A   Clear
5:55 PM 57.2 °F - 51.8 °F 82% 30.03 in 10.0 mi South 4.6 mph - N/A   Clear
6:15 PM 57.2 °F - 51.8 °F 82% 30.04 in 10.0 mi South 5.8 mph - N/A   Clear
6:35 PM 57.2 °F - 51.8 °F 82% 30.05 in 10.0 mi South 4.6 mph - N/A   Scattered Clouds
6:55 PM 55.4 °F - 51.8 °F 88% 30.05 in 10.0 mi South 5.8 mph - N/A   Scattered Clouds
7:15 PM 55.4 °F - 51.8 °F 88% 30.05 in 10.0 mi South 4.6 mph - N/A   Scattered Clouds
7:35 PM 55.4 °F - 51.8 °F 88% 30.05 in 10.0 mi South 5.8 mph - N/A   Scattered Clouds
7:55 PM 55.4 °F - 51.8 °F 88% 30.05 in 10.0 mi South 5.8 mph - N/A   Clear
8:15 PM 55.4 °F - 51.8 °F 88% 30.06 in 10.0 mi SSW 8.1 mph - N/A   Clear
8:35 PM 55.4 °F - 51.8 °F 88% 30.06 in 10.0 mi SW 4.6 mph - N/A   Clear
8:55 PM 55.4 °F - 51.8 °F 88% 30.06 in 10.0 mi South 4.6 mph - N/A   Clear
9:15 PM 55.4 °F - 51.8 °F 88% 30.06 in 10.0 mi South 4.6 mph - N/A   Clear
9:35 PM 55.4 °F - 51.8 °F 88% 30.06 in 10.0 mi South 4.6 mph - N/A   Clear
9:55 PM 55.4 °F - 51.8 °F 88% 30.06 in 10.0 mi South 3.5 mph - N/A   Clear
10:15 PM 55.4 °F - 51.8 °F 88% 30.07 in 10.0 mi Calm Calm - N/A   Clear
10:35 PM 53.6 °F - 51.8 °F 94% 30.07 in 10.0 mi South 4.6 mph - N/A   Clear
10:55 PM 55.4 °F - 51.8 °F 88% 30.07 in 10.0 mi South 5.8 mph - N/A   Clear
11:15 PM 55.4 °F - 51.8 °F 88% 30.07 in 10.0 mi South 4.6 mph - N/A   Clear
11:35 PM 55.4 °F - 51.8 °F 88% 30.07 in 10.0 mi South 3.5 mph - N/A   Clear
11:55 PM 55.4 °F - 51.8 °F 88% 30.07 in 10.0 mi South 3.5 mph - N/A   Clear